Overview Statistics Trail Chart Weather Telemetry Raw packets
 

This is the latest recevied weather packets stored in our database for station/object HS5XHC-1. If no packets are shown the sender has not sent any weather packets the latest 10 day(s).

<< 33 34 35 36 37 38 39 >>
Time Temp. Humidity Pressure Rain* Wind** Luminosity Snow
1777376963 27.78° C 49% 966 hPa - - 0 W/m² -
1777376339 28.33° C 48% 966 hPa - - 0 W/m² -
1777375715 28.33° C 47% 966 hPa - - 0 W/m² -
1777375091 28.33° C 45% 966 hPa - - 0 W/m² -
1777374467 26.67° C 45% 965 hPa - - 0 W/m² -
1777373842 26.11° C 46% 965 hPa - - 0 W/m² -
1777373218 26.67° C 47% 964 hPa - - 0 W/m² -
1777372595 28.89° C 36% 964 hPa - - 0 W/m² -
1777371971 30° C 37% 963 hPa - - 0 W/m² -
1777371347 35.56° C 34% 962 hPa - - 0 W/m² -
1777370723 35.56° C 32% 961 hPa - - 0 W/m² -
1777370099 36.11° C 32% 962 hPa - - 0 W/m² -
1777369475 36.11° C 31% 962 hPa - - 0 W/m² -
1777368851 36.11° C 30% 961 hPa - - 0 W/m² -
1777368228 36.11° C 30% 961 hPa - - 0 W/m² -
1777367603 36.11° C 30% 961 hPa - - 0 W/m² -
1777366979 36.11° C 31% 961 hPa - - 0 W/m² -
1777366355 36.67° C 30% 961 hPa - - 0 W/m² -
1777365731 36.11° C 31% 961 hPa - - 0 W/m² -
1777365107 36.11° C 32% 962 hPa - - 0 W/m² -
1777364483 35.56° C 32% 962 hPa - - 0 W/m² -
1777363859 36.11° C 32% 962 hPa - - 0 W/m² -
1777363235 36.11° C 32% 962 hPa - - 0 W/m² -
1777362611 36.11° C 32% 962 hPa - - 0 W/m² -
1777361988 35.56° C 32% 963 hPa - - 0 W/m² -

* Rain since midnight (hover to see other rain measurements)
** Current wind speed in m/s (hover to see current wind gust speed)